When you browse on this site, cookies collect data to enhance your experience and personalize the content and advertising you see.
Visit our Privacy Policy to learn more. By continuing to use the site, you agree to this use of cookies and data.
  • In Romania
  • List of Countries
  • For 7 days
  • Water Temperature
  • Weather Map
  • Weather Widgets
  • user-avatar
    Login

    Hourly Weather Sydney

    Today, 1 June, Monday

    Time Temperature Precipitation Wind Pressure Humidity
    00:00 +13°C° 0 mm 3 mps 759 mmHg 68%
    01:00 +13°C° 0 mm 3 mps 759 mmHg 70%
    02:00 +13°C° 0 mm 3 mps 758 mmHg 71%
    03:00 +13°C° 0 mm 4 mps 758 mmHg 72%
    04:00 +13°C° 0 mm 4 mps 757 mmHg 74%
    05:00 +13°C° 0 mm 5 mps 757 mmHg 74%
    06:00 +13°C° 0 mm 5 mps 757 mmHg 73%
    07:00 +13°C° 0 mm 6 mps 757 mmHg 73%
    08:00 +15°C° 0 mm 6 mps 756 mmHg 66%
    09:00 +17°C° 0 mm 6 mps 756 mmHg 59%
    10:00 +20°C° 0 mm 6 mps 756 mmHg 51%
    11:00 +20°C° 0 mm 6 mps 755 mmHg 47%
    12:00 +21°C° 0 mm 5 mps 754 mmHg 43%
    13:00 +21°C° 0 mm 4 mps 754 mmHg 39%
    14:00 +21°C° 0 mm 5 mps 754 mmHg 39%
    15:00 +20°C° 0 mm 5 mps 754 mmHg 38%
    16:00 +20°C° 0 mm 5 mps 755 mmHg 39%
    17:00 +17°C° 0 mm 5 mps 755 mmHg 46%
    18:00 +15°C° 0 mm 6 mps 756 mmHg 53%
    19:00 +13°C° 0 mm 6 mps 757 mmHg 60%
    20:00 +11°C° 0 mm 6 mps 757 mmHg 59%
    21:00 +10°C° 0 mm 6 mps 758 mmHg 59%
    22:00 +9°C° 0 mm 6 mps 758 mmHg 59%
    23:00 +9°C° 0 mm 6 mps 758 mmHg 59%

    Tomorrow, 2 June, Tuesday

    Time Temperature Precipitation Wind Pressure Humidity
    00:00 +8°C° 0 mm 6 mps 758 mmHg 59%
    01:00 +8°C° 0 mm 6 mps 758 mmHg 59%
    02:00 +8°C° 0 mm 6 mps 758 mmHg 60%
    03:00 +8°C° 0 mm 6 mps 758 mmHg 61%
    04:00 +7°C° 0 mm 6 mps 758 mmHg 61%
    05:00 +7°C° 0.1 mm 6 mps 758 mmHg 62%
    06:00 +8°C° 0.1 mm 5 mps 758 mmHg 63%
    07:00 +8°C° 0.1 mm 5 mps 759 mmHg 64%
    08:00 +9°C° 0.9 mm 6 mps 759 mmHg 63%
    09:00 +10°C° 0.9 mm 6 mps 759 mmHg 61%
    10:00 +11°C° 0.9 mm 6 mps 759 mmHg 60%
    11:00 +13°C° 0.9 mm 6 mps 759 mmHg 59%
    12:00 +13°C° 0.9 mm 5 mps 759 mmHg 58%
    13:00 +14°C° 0.9 mm 5 mps 759 mmHg 58%
    14:00 +14°C° 0.1 mm 6 mps 759 mmHg 55%
    15:00 +15°C° 0.1 mm 6 mps 760 mmHg 53%
    16:00 +15°C° 0.1 mm 7 mps 760 mmHg 50%
    17:00 +12°C° 0 mm 7 mps 761 mmHg 54%
    18:00 +11°C° 0 mm 7 mps 761 mmHg 58%
    19:00 +10°C° 0 mm 7 mps 762 mmHg 62%
    20:00 +9°C° 0 mm 7 mps 762 mmHg 62%
    21:00 +9°C° 0 mm 7 mps 763 mmHg 63%
    22:00 +9°C° 0 mm 7 mps 763 mmHg 63%
    23:00 +9°C° 0 mm 7 mps 763 mmHg 65%

    Day after tomorrow, 3 June, Wednesday

    Time Temperature Precipitation Wind Pressure Humidity
    00:00 +9°C° 0 mm 7 mps 763 mmHg 66%
    01:00 +9°C° 0 mm 7 mps 763 mmHg 67%
    02:00 +8°C° 0 mm 7 mps 763 mmHg 69%
    03:00 +8°C° 0 mm 6 mps 763 mmHg 70%
    04:00 +8°C° 0 mm 6 mps 763 mmHg 71%
    05:00 +8°C° 0 mm 6 mps 763 mmHg 72%
    06:00 +8°C° 0 mm 6 mps 764 mmHg 73%
    07:00 +8°C° 0 mm 5 mps 764 mmHg 73%
    08:00 +10°C° 0 mm 5 mps 765 mmHg 66%
    09:00 +13°C° 0 mm 5 mps 765 mmHg 58%
    10:00 +15°C° 0 mm 5 mps 766 mmHg 50%
    11:00 +16°C° 0 mm 6 mps 766 mmHg 47%
    12:00 +17°C° 0 mm 7 mps 766 mmHg 44%
    13:00 +17°C° 0 mm 7 mps 766 mmHg 41%
    14:00 +17°C° 0 mm 7 mps 766 mmHg 44%
    15:00 +16°C° 0 mm 8 mps 767 mmHg 46%
    16:00 +15°C° 0 mm 8 mps 767 mmHg 49%
    17:00 +13°C° 0 mm 8 mps 768 mmHg 50%
    18:00 +13°C° 0 mm 8 mps 769 mmHg 52%
    19:00 +12°C° 0 mm 8 mps 769 mmHg 53%
    20:00 +11°C° 0 mm 8 mps 770 mmHg 56%
    21:00 +11°C° 0 mm 7 mps 771 mmHg 59%
    22:00 +10°C° 0 mm 7 mps 771 mmHg 62%
    23:00 +10°C° 0.1 mm 7 mps 771 mmHg 63%

    4 June, Thursday

    Time Temperature Precipitation Wind Pressure Humidity
    00:00 +9°C° 0.1 mm 7 mps 771 mmHg 63%
    01:00 +9°C° 0.1 mm 7 mps 771 mmHg 63%
    02:00 +8°C° 0.1 mm 6 mps 771 mmHg 64%
    03:00 +8°C° 0.1 mm 6 mps 771 mmHg 65%
    04:00 +8°C° 0.1 mm 6 mps 771 mmHg 66%
    05:00 +8°C° 0.1 mm 6 mps 772 mmHg 66%
    06:00 +8°C° 0.1 mm 6 mps 772 mmHg 67%
    07:00 +8°C° 0.1 mm 5 mps 773 mmHg 68%
    08:00 +9°C° 0.1 mm 6 mps 773 mmHg 65%
    09:00 +11°C° 0.1 mm 6 mps 773 mmHg 62%
    10:00 +13°C° 0.1 mm 6 mps 773 mmHg 59%
    11:00 +14°C° 0 mm 6 mps 773 mmHg 58%
    12:00 +15°C° 0 mm 6 mps 772 mmHg 57%
    13:00 +16°C° 0 mm 6 mps 772 mmHg 56%
    14:00 +15°C° 0 mm 6 mps 772 mmHg 58%
    15:00 +15°C° 0 mm 5 mps 772 mmHg 59%
    16:00 +14°C° 0 mm 5 mps 772 mmHg 61%
    17:00 +13°C° 0 mm 4 mps 772 mmHg 67%
    18:00 +12°C° 0 mm 4 mps 772 mmHg 74%
    19:00 +11°C° 0 mm 3 mps 773 mmHg 80%
    20:00 +11°C° 0 mm 3 mps 773 mmHg 81%
    21:00 +10°C° 0 mm 3 mps 773 mmHg 83%
    22:00 +9°C° 0 mm 3 mps 773 mmHg 84%
    23:00 +9°C° 0 mm 3 mps 773 mmHg 84%

    5 June, Friday

    Time Temperature Precipitation Wind Pressure Humidity
    00:00 +9°C° 0 mm 3 mps 773 mmHg 83%
    01:00 +8°C° 0 mm 2 mps 772 mmHg 83%
    02:00 +8°C° 0 mm 3 mps 772 mmHg 83%
    03:00 +8°C° 0 mm 3 mps 772 mmHg 84%
    04:00 +8°C° 0 mm 3 mps 771 mmHg 84%
    05:00 +7°C° 0 mm 3 mps 772 mmHg 85%
    06:00 +7°C° 0 mm 3 mps 772 mmHg 85%
    07:00 +7°C° 0 mm 3 mps 772 mmHg 85%
    08:00 +9°C° 0 mm 3 mps 772 mmHg 76%
    09:00 +11°C° 0 mm 3 mps 772 mmHg 67%
    10:00 +13°C° 0 mm 3 mps 772 mmHg 59%
    11:00 +15°C° 0 mm 2 mps 771 mmHg 53%
    12:00 +17°C° 0 mm 2 mps 770 mmHg 48%
    13:00 +19°C° 0 mm 1 mps 770 mmHg 42%
    14:00 +19°C° 0 mm 1 mps 769 mmHg 45%
    15:00 +18°C° 0 mm 2 mps 769 mmHg 47%
    16:00 +18°C° 0 mm 3 mps 769 mmHg 49%
    17:00 +16°C° 0 mm 3 mps 769 mmHg 59%
    18:00 +14°C° 0 mm 3 mps 769 mmHg 68%
    19:00 +12°C° 0 mm 3 mps 770 mmHg 78%
    20:00 +13°C° 0 mm 2 mps 770 mmHg 79%
    21:00 +12°C° 0 mm 2 mps 770 mmHg 81%
    22:00 +12°C° 0 mm 2 mps 770 mmHg 83%
    23:00 +10°C° 0 mm 2 mps 769 mmHg 82%

    6 June, Saturday

    Time Temperature Precipitation Wind Pressure Humidity
    00:00 +10°C° 0 mm 2 mps 769 mmHg 81%
    01:00 +9°C° 0 mm 2 mps 769 mmHg 80%
    02:00 +9°C° 0 mm 2 mps 769 mmHg 79%
    03:00 +9°C° 0 mm 2 mps 768 mmHg 78%
    04:00 +8°C° 0 mm 2 mps 768 mmHg 76%
    05:00 +8°C° 0 mm 2 mps 768 mmHg 77%
    06:00 +8°C° 0 mm 2 mps 768 mmHg 77%
    07:00 +7°C° 0 mm 2 mps 768 mmHg 78%
    08:00 +9°C° 0 mm 2 mps 768 mmHg 70%
    09:00 +12°C° 0 mm 2 mps 768 mmHg 62%
    10:00 +14°C° 0 mm 2 mps 768 mmHg 55%
    11:00 +16°C° 0 mm 2 mps 767 mmHg 51%
    12:00 +18°C° 0 mm 1 mps 766 mmHg 46%
    13:00 +20°C° 0 mm 1 mps 765 mmHg 42%
    14:00 +19°C° 0 mm 1 mps 765 mmHg 44%
    15:00 +18°C° 0 mm 2 mps 765 mmHg 46%
    16:00 +17°C° 0 mm 2 mps 765 mmHg 48%
    17:00 +16°C° 0 mm 2 mps 765 mmHg 58%
    18:00 +14°C° 0 mm 2 mps 765 mmHg 68%
    19:00 +13°C° 0 mm 1 mps 766 mmHg 78%
    20:00 +12°C° 0 mm 2 mps 766 mmHg 76%
    21:00 +12°C° 0 mm 2 mps 766 mmHg 74%
    22:00 +12°C° 0 mm 2 mps 766 mmHg 72%
    23:00 +10°C° 0 mm 3 mps 766 mmHg 70%
    Show more